Ely, NV

7:20 PM PDT on August 23, 2016 (GMT -0700)
Ely

Weather History for KELY - November, 2013

Change the Weather History Date:

Thursday, November 21, 2013

  Actual Average Record
Temperature  
Mean Temperature 28 °F 31 °F  
Max Temperature 33 °F 46 °F 65 °F (2002)
Min Temperature 22 °F 17 °F -4 °F (1941)
Degree Days  
Heating Degree Days 37 34  
Month to date heating degree days 565 618  
Since 1 July heating degree days 1466 1546  
Cooling Degree Days 0 0  
Month to date cooling degree days 0 0  
Year to date cooling degree days 387 218  
Moisture  
Dew Point 27 °F    
Average Humidity 87    
Maximum Humidity 100    
Minimum Humidity 74    
Precipitation  
Precipitation 0.76 in 0.02 in 0.76 in (2013)
Month to date precipitation 0.87 0.53  
Year to date precipitation 7.55 9.00  
Snow  
Snow 9.90 in 0.20 in 9.90 in (2013)
Month to date snowfall 9.9 4.1  
Since 1 July snowfall 12.9 7.5  
Since 1 September snowfall 12.9 7.5  
Snow Depth 3.00 in    
Sea Level Pressure  
Sea Level Pressure 29.99 in    
Wind  
Wind Speed 19 mph (NNE)    
Max Wind Speed 35 mph    
Max Gust Speed 42 mph    
Visibility 4 miles    
Events Fog , Snow    
T = Trace of Precipitation, MM = Missing Value Source: NWS Daily Summary

Daily Weather History Graph

Daily Weather History Graph

Search for Another Location

Airport or City:

Trip Planner

Search our weather history database for the weather conditions in past years. The results will help you decide how hot, cold, wet, or windy it might be!

Date:

Astronomy

Nov. 21, 2013 Rise Set
Actual Time 6:29 AM PST 4:20 PM PST
Civil Twilight 6:00 AM PST 4:49 PM PST
Nautical Twilight 5:28 AM PST 5:22 PM PST
Astronomical Twilight 4:56 AM PST 5:54 PM PST
Moon 8:00 PM PST (11/21) 9:39 AM PST (11/21)
Length of Visible Light 10h 48m
Length of Day
9h 50m
Waning Gibbous, 84% of the Moon is Illuminated
Nov 21
Waning Gibbous
Nov 25
Last Quarter
Dec 2
New
Dec 9
First Quarter
Dec 17
Full

Hourly Weather History & Observations

Time (PST) Temp. Windchill Dew Point Humidity Pressure Visibility Wind Dir Wind Speed Gust Speed Precip Events Conditions
12:53 AM 30.0 °F 26.5 °F 28.9 °F 96% 29.82 in 10.0 mi SW 3.5 mph - N/A   Mostly Cloudy
1:24 AM 30.9 °F - 30.0 °F 96% 29.88 in 10.0 mi Calm Calm - N/A   Overcast
1:53 AM 30.9 °F 27.5 °F 30.9 °F 100% 29.81 in 5.0 mi ESE 3.5 mph - 0.00 in Snow Light Snow
2:09 AM 32.0 °F 27.5 °F 32.0 °F 100% 29.88 in 2.5 mi South 4.6 mph - 0.01 in Snow Light Snow
2:23 AM 32.0 °F 25.6 °F 32.0 °F 100% 29.88 in 1.5 mi South 6.9 mph - 0.02 in Snow Light Snow
2:43 AM 32.0 °F 28.7 °F 32.0 °F 100% 29.88 in 1.2 mi South 3.5 mph - 0.05 in Snow Light Snow
2:53 AM 32.0 °F - 32.0 °F 100% 29.80 in 1.2 mi Calm Calm - 0.07 in Snow Light Snow
3:24 AM 32.0 °F 28.7 °F 32.0 °F 100% 29.86 in 2.0 mi North 3.5 mph - 0.03 in Snow Light Snow
3:34 AM 33.1 °F 27.7 °F 32.0 °F 96% 29.86 in 3.0 mi NNE 5.8 mph - 0.04 in Snow Light Snow
3:53 AM 32.0 °F 23.0 °F 32.0 °F 100% 29.81 in 4.0 mi North 11.5 mph - 0.04 in Snow Light Snow
4:04 AM 32.0 °F 24.8 °F 32.0 °F 100% 29.87 in 3.0 mi NNE 8.1 mph - 0.00 in Snow Light Snow
4:13 AM 32.0 °F 24.8 °F 32.0 °F 100% 29.87 in 1.8 mi NNE 8.1 mph - 0.00 in Snow Light Snow
4:21 AM 32.0 °F 24.8 °F 32.0 °F 100% 29.88 in 0.8 mi North 8.1 mph - 0.01 in Snow Light Snow
4:53 AM 32.0 °F 22.1 °F 32.0 °F 100% 29.83 in 0.8 mi NNE 13.8 mph - 0.08 in Snow Light Snow
5:00 AM 32.0 °F 23.0 °F 32.0 °F 100% 29.89 in 1.0 mi NNE 11.5 mph - 0.01 in Snow Light Snow
5:07 AM 32.0 °F 22.1 °F 32.0 °F 100% 29.88 in 1.2 mi North 13.8 mph - 0.02 in Snow Light Snow
5:32 AM 32.0 °F 23.0 °F 32.0 °F 100% 29.88 in 2.0 mi NNE 11.5 mph - 0.03 in Snow Light Snow
5:41 AM 32.0 °F 22.1 °F 32.0 °F 100% 29.88 in 5.0 mi North 13.8 mph - 0.03 in Snow Light Snow
5:53 AM 32.0 °F 22.5 °F 32.0 °F 100% 29.84 in 9.0 mi NNE 12.7 mph - 0.03 in   Overcast
6:05 AM 30.9 °F 19.1 °F 30.9 °F 100% 29.88 in 10.0 mi North 18.4 mph - N/A   Overcast
6:33 AM 30.9 °F 18.4 °F 30.9 °F 100% 29.88 in 10.0 mi North 20.7 mph 27.6 mph 0.00 in   Overcast
6:53 AM 30.9 °F 18.1 °F 30.9 °F 100% 29.86 in 10.0 mi NNE 21.9 mph 26.5 mph 0.00 in   Overcast
7:05 AM 30.9 °F 18.1 °F 30.0 °F 96% 29.89 in 10.0 mi North 21.9 mph 26.5 mph N/A   Overcast
7:17 AM 30.0 °F 17.5 °F 30.0 °F 100% 29.90 in 1.8 mi North 19.6 mph - 0.00 in Snow Light Snow
7:20 AM 30.0 °F 17.2 °F 30.0 °F 100% 29.91 in 1.2 mi NNE 20.7 mph - 0.00 in Snow Light Snow
7:31 AM 30.0 °F 17.5 °F 30.0 °F 100% 29.91 in 0.8 mi North 19.6 mph - 0.00 in Snow Light Snow
7:43 AM 30.0 °F 18.7 °F 28.9 °F 96% 29.92 in 0.2 mi North 16.1 mph 26.5 mph 0.01 in Fog , Snow Snow
7:53 AM 30.0 °F 18.7 °F 28.9 °F 96% 29.92 in 0.2 mi North 16.1 mph 24.2 mph 0.03 in Fog , Snow Heavy Snow
8:53 AM 28.0 °F 14.6 °F 28.0 °F 100% 29.95 in 0.2 mi North 20.7 mph - 0.11 in Fog , Snow Snow
9:53 AM 27.0 °F 12.2 °F 27.0 °F 100% 30.01 in 0.2 mi North 24.2 mph 29.9 mph 0.06 in Fog , Snow Heavy Snow
10:53 AM 27.0 °F 11.6 °F 26.1 °F 96% 30.02 in 0.2 mi North 26.5 mph 34.5 mph 0.04 in Fog , Snow Heavy Snow
11:32 AM 27.0 °F 11.3 °F 26.1 °F 96% 30.01 in 0.5 mi North 27.6 mph 36.8 mph 0.02 in Fog , Snow Light Snow
11:43 AM 27.0 °F 11.3 °F 26.1 °F 96% 30.01 in 0.5 mi North 27.6 mph 39.1 mph 0.02 in Fog , Snow Light Snow
11:53 AM 27.0 °F 11.0 °F 25.0 °F 92% 30.04 in 0.5 mi North 28.8 mph 35.7 mph 0.02 in Fog , Snow Light Snow
12:03 PM 27.0 °F 11.0 °F 25.0 °F 92% 30.01 in 0.8 mi North 28.8 mph 38.0 mph 0.00 in Snow Light Snow
12:36 PM 26.1 °F 9.3 °F 25.0 °F 96% 30.02 in 1.0 mi North 31.1 mph 39.1 mph 0.00 in Snow Light Snow
12:49 PM 26.6 °F 10.8 °F 24.8 °F 93% 30.03 in 0.8 mi North 27.6 mph 41.4 mph 0.00 in Snow Light Snow
12:53 PM 26.1 °F 10.4 °F 24.1 °F 92% 30.07 in 1.0 mi North 26.5 mph 41.4 mph 0.00 in Snow Light Snow
1:18 PM 26.1 °F 9.6 °F 24.1 °F 92% 30.04 in 0.8 mi North 29.9 mph 39.1 mph 0.00 in Snow Light Snow
1:50 PM 24.8 °F 7.9 °F 24.8 °F 100% 30.06 in 0.5 mi North 29.9 mph 40.3 mph 0.00 in Fog , Snow Light Snow
1:53 PM 25.0 °F 8.4 °F 23.0 °F 92% 30.10 in 0.5 mi North 28.8 mph 38.0 mph 0.00 in Fog , Snow Snow
2:14 PM 25.0 °F 7.8 °F 23.0 °F 92% 30.08 in 0.5 mi North 31.1 mph 39.1 mph 0.00 in Fog , Snow Snow
2:35 PM 24.1 °F 7.1 °F 21.9 °F 91% 30.09 in 1.2 mi North 28.8 mph 36.8 mph 0.00 in Snow Light Snow
2:39 PM 24.1 °F 7.4 °F 21.9 °F 91% 30.09 in 1.5 mi North 27.6 mph 36.8 mph 0.00 in Snow Light Snow
2:50 PM 24.8 °F 8.7 °F 21.2 °F 86% 30.09 in 2.5 mi North 26.5 mph 34.5 mph 0.00 in Snow Light Snow
2:53 PM 24.1 °F 8.0 °F 21.9 °F 91% 30.13 in 3.0 mi North 25.3 mph 35.7 mph 0.00 in Snow Light Snow
3:53 PM 24.1 °F 9.0 °F 21.0 °F 88% 30.16 in 10.0 mi NNE 21.9 mph 29.9 mph 0.00 in   Overcast
4:53 PM 23.0 °F 8.0 °F 21.0 °F 92% 30.18 in 10.0 mi NNE 20.7 mph 29.9 mph N/A   Overcast
5:53 PM 23.0 °F 6.0 °F 21.0 °F 92% 30.19 in 10.0 mi NNE 27.6 mph 33.4 mph N/A   Mostly Cloudy
6:53 PM 23.0 °F 7.6 °F 18.0 °F 81% 30.21 in 10.0 mi NNE 21.9 mph 34.5 mph N/A   Overcast
7:53 PM 23.0 °F 8.0 °F 16.0 °F 74% 30.22 in 10.0 mi NNE 20.7 mph 32.2 mph N/A   Clear
8:53 PM 23.0 °F 6.9 °F 16.0 °F 74% 30.23 in 10.0 mi NNE 24.2 mph 33.4 mph N/A   Clear
9:53 PM 23.0 °F 8.0 °F 16.0 °F 74% 30.27 in 10.0 mi NNE 20.7 mph - N/A   Overcast
10:53 PM 23.0 °F 8.7 °F 17.1 °F 78% 30.28 in 10.0 mi NNE 18.4 mph 27.6 mph N/A   Overcast
11:53 PM 23.0 °F 7.2 °F 17.1 °F 78% 30.28 in 10.0 mi NNE 23.0 mph - N/A   Overcast